| time (UTC) | temp F | wind direction | speed MPH | gust MPH | rain 1hr in | rain 24hr in | rain mn in | humidity % | barometer mb |
| 20260507040051 | 57 | 281 | 0.0 | 0.0 | 0.00 | 0.00 | 0.00 | 91 | 1004.4 |
| 20260507034549 | 57 | 242 | 0.0 | 0.0 | 0.00 | 0.00 | 0.14 | 92 | 1004.3 |
| 20260507033046 | 58 | 271 | 0.0 | 0.0 | 0.00 | 0.00 | 0.14 | 92 | 1004.1 |
| 20260507031543 | 58 | 259 | 2.0 | 0.0 | 0.00 | 0.00 | 0.14 | 92 | 1003.9 |
| 20260507030046 | 58 | 217 | 0.0 | 0.0 | 0.00 | 0.00 | 0.14 | 92 | 1003.7 |
| 20260507024543 | 58 | 214 | 1.0 | 0.0 | 0.00 | 0.00 | 0.13 | 92 | 1003.2 |
| 20260507023041 | 58 | 263 | 0.0 | 0.0 | 0.00 | 0.00 | 0.13 | 92 | 1003.5 |
| 20260507021510 | 58 | 240 | 1.0 | 0.0 | 0.00 | 0.00 | 0.13 | 92 | 1003.4 |
| 20260507020011 | 58 | 244 | 1.0 | 0.0 | 0.00 | 0.00 | 0.13 | 92 | 1003.5 |
| 20260507014507 | 58 | 206 | 1.0 | 0.0 | 0.00 | 0.00 | 0.13 | 92 | 1003.3 |
| 20260507013006 | 58 | 207 | 2.0 | 0.0 | 0.00 | 0.00 | 0.13 | 92 | 1003.5 |
| 20260507011505 | 58 | 209 | 2.0 | 0.0 | 0.00 | 0.00 | 0.13 | 92 | 1003.5 |
| 20260507010005 | 58 | 209 | 2.0 | 0.0 | 0.00 | 0.00 | 0.13 | 92 | 1003.7 |
| 20260507004533 | 58 | 208 | 3.0 | 0.0 | 0.00 | 0.00 | 0.13 | 92 | 1003.7 |
| 20260507003032 | 58 | 204 | 2.0 | 0.0 | 0.00 | 0.00 | 0.13 | 92 | 1003.6 |
| 20260507001529 | 58 | 213 | 3.0 | 0.0 | 0.00 | 0.00 | 0.13 | 92 | 1003.5 |
| 20260507000029 | 58 | 191 | 2.0 | 0.0 | 0.00 | 0.00 | 0.13 | 92 | 1003.5 |
| 20260506234526 | 58 | 192 | 1.0 | 0.0 | 0.00 | 0.00 | 0.13 | 92 | 1003.2 |
| 20260506233025 | 59 | 199 | 0.0 | 0.0 | 0.00 | 0.00 | 0.13 | 91 | 1003.2 |
| 20260506231523 | 59 | 198 | 2.0 | 0.0 | 0.00 | 0.00 | 0.13 | 91 | 1003.1 |
| 20260506230020 | 59 | 203 | 2.0 | 0.0 | 0.00 | 0.00 | 0.09 | 90 | 1003.4 |
| 20260506224518 | 59 | 213 | 3.0 | 0.0 | 0.00 | 0.00 | 0.09 | 90 | 1003.4 |
| 20260506223017 | 59 | 180 | 2.0 | 0.0 | 0.00 | 0.00 | 0.08 | 90 | 1003.3 |
| 20260506221512 | 59 | 248 | 3.0 | 0.0 | 0.00 | 0.00 | 0.08 | 89 | 1003.5 |
| 20260506220012 | 59 | 202 | 2.0 | 0.0 | 0.00 | 0.00 | 0.07 | 89 | 1003.7 |
| 20260506214510 | 59 | 199 | 1.0 | 0.0 | 0.00 | 0.00 | 0.07 | 89 | 1003.8 |
| 20260506213014 | 59 | 190 | 2.0 | 0.0 | 0.00 | 0.00 | 0.07 | 88 | 1004.0 |
| 20260506211538 | 59 | 238 | 5.0 | 0.0 | 0.00 | 0.00 | 0.07 | 88 | 1004.2 |
| 20260506210035 | 60 | 216 | 5.0 | 0.0 | 0.00 | 0.00 | 0.07 | 87 | 1004.1 |
| 20260506204532 | 60 | 211 | 5.0 | 0.0 | 0.00 | 0.00 | 0.07 | 87 | 1004.3 |
| 20260506203032 | 60 | 196 | 4.0 | 0.0 | 0.00 | 0.00 | 0.06 | 86 | 1004.4 |
| 20260506201542 | 60 | 189 | 2.0 | 0.0 | 0.00 | 0.00 | 0.05 | 85 | 1004.4 |
| 20260506200031 | 61 | 190 | 5.0 | 0.0 | 0.00 | 0.00 | 0.05 | 83 | 1004.2 |
| 20260506194559 | 62 | 202 | 3.0 | 0.0 | 0.00 | 0.00 | 0.04 | 82 | 1004.3 |
| 20260506193057 | 63 | 212 | 3.0 | 0.0 | 0.00 | 0.00 | 0.03 | 79 | 1004.3 |
| 20260506191555 | 65 | 214 | 2.0 | 0.0 | 0.00 | 0.00 | 0.02 | 76 | 1004.3 |
| 20260506190054 | 66 | 262 | 4.0 | 0.0 | 0.00 | 0.00 | 0.01 | 72 | 1004.3 |
| 20260506184555 | 67 | 211 | 3.0 | 0.0 | 0.00 | 0.00 | 0.00 | 68 | 1004.5 |
| 20260506183053 | 69 | 182 | 4.0 | 0.0 | 0.00 | 0.00 | 0.00 | 64 | 1004.6 |
| 20260506181549 | 71 | 199 | 6.0 | 0.0 | 0.00 | 0.00 | 0.00 | 59 | 1004.5 |
| 20260506180048 | 72 | 267 | 7.0 | 0.0 | 0.00 | 0.00 | 0.00 | 54 | 1004.4 |
| 20260506174547 | 72 | 200 | 7.0 | 0.0 | 0.00 | 0.00 | 0.00 | 52 | 1004.6 |
| 20260506173104 | 73 | 219 | 7.0 | 0.0 | 0.00 | 0.00 | 0.00 | 52 | 1004.7 |
| 20260506171553 | 74 | 239 | 5.0 | 0.0 | 0.00 | 0.00 | 0.00 | 51 | 1004.8 |
| 20260506170040 | 74 | 212 | 6.0 | 0.0 | 0.00 | 0.00 | 0.00 | 53 | 1004.7 |
| 20260506164539 | 72 | 202 | 5.0 | 0.0 | 0.00 | 0.00 | 0.00 | 55 | 1005.0 |
| 20260506163052 | 71 | 200 | 4.0 | 0.0 | 0.00 | 0.00 | 0.00 | 56 | 1005.2 |
| 20260506161540 | 71 | 232 | 6.0 | 0.0 | 0.00 | 0.00 | 0.00 | 56 | 1005.3 |
| 20260506160034 | 71 | 210 | 5.0 | 0.0 | 0.00 | 0.00 | 0.00 | 56 | 1005.9 |
| 20260506154536 | 72 | 194 | 6.0 | 0.0 | 0.00 | 0.00 | 0.00 | 56 | 1006.1 |
| 20260506153028 | 73 | 217 | 3.0 | 0.0 | 0.00 | 0.00 | 0.00 | 55 | 1006.1 |
| 20260506151527 | 73 | 220 | 4.0 | 0.0 | 0.00 | 0.00 | 0.00 | 56 | 1006.4 |
| 20260506150056 | 73 | 205 | 2.0 | 0.0 | 0.00 | 0.00 | 0.00 | 56 | 1006.5 |
| 20260506144554 | 71 | 188 | 3.0 | 0.0 | 0.00 | 0.00 | 0.00 | 59 | 1006.6 |
| 20260506143046 | 70 | 209 | 3.0 | 0.0 | 0.00 | 0.00 | 0.00 | 61 | 1006.4 |
| 20260506141552 | 70 | 244 | 4.0 | 0.0 | 0.00 | 0.00 | 0.00 | 60 | 1006.3 |
| 20260506140051 | 69 | 240 | 4.0 | 0.0 | 0.00 | 0.00 | 0.00 | 62 | 1006.6 |
| 20260506134537 | 68 | 145 | 4.0 | 0.0 | 0.00 | 0.00 | 0.00 | 65 | 1006.6 |
| 20260506133004 | 67 | 207 | 2.0 | 0.0 | 0.00 | 0.00 | 0.00 | 66 | 1007.1 |
| 20260506131503 | 67 | 232 | 2.0 | 0.0 | 0.00 | 0.00 | 0.00 | 67 | 1007.1 |
| 20260506130106 | 67 | 179 | 2.0 | 0.0 | 0.00 | 0.00 | 0.00 | 67 | 1007.0 |
| 20260506124559 | 66 | 218 | 1.0 | 0.0 | 0.00 | 0.00 | 0.00 | 69 | 1007.1 |
| 20260506123053 | 65 | 214 | 3.0 | 0.0 | 0.00 | 0.00 | 0.00 | 71 | 1007.2 |
| 20260506121550 | 63 | 205 | 1.0 | 0.0 | 0.00 | 0.00 | 0.00 | 72 | 1007.5 |
| 20260506120106 | 62 | 153 | 1.0 | 0.0 | 0.00 | 0.00 | 0.00 | 74 | 1007.2 |
| 20260506114556 | 61 | 175 | 2.0 | 0.0 | 0.00 | 0.00 | 0.00 | 75 | 1007.4 |
| 20260506113046 | 61 | 182 | 4.0 | 0.0 | 0.00 | 0.00 | 0.00 | 75 | 1007.7 |
| 20260506111551 | 61 | 261 | 4.0 | 0.0 | 0.00 | 0.00 | 0.00 | 76 | 1007.9 |
| 20260506110043 | 60 | 188 | 4.0 | 0.0 | 0.00 | 0.00 | 0.00 | 77 | 1007.6 |
| 20260506104544 | 59 | 194 | 2.0 | 0.0 | 0.00 | 0.00 | 0.00 | 78 | 1007.6 |
| 20260506103039 | 59 | 202 | 3.0 | 0.0 | 0.00 | 0.00 | 0.00 | 78 | 1007.5 |
| 20260506101538 | 59 | 207 | 2.0 | 0.0 | 0.00 | 0.00 | 0.00 | 77 | 1007.5 |
| 20260506100008 | 59 | 201 | 3.0 | 0.0 | 0.00 | 0.00 | 0.00 | 77 | 1007.4 |
| 20260506094505 | 59 | 206 | 3.0 | 0.0 | 0.00 | 0.00 | 0.00 | 77 | 1007.4 |
| 20260506093003 | 59 | 201 | 3.0 | 0.0 | 0.00 | 0.00 | 0.00 | 76 | 1007.3 |
| 20260506091600 | 59 | 190 | 2.0 | 0.0 | 0.00 | 0.00 | 0.00 | 75 | 1007.5 |
| 20260506090117 | 60 | 224 | 4.0 | 0.0 | 0.00 | 0.00 | 0.00 | 75 | 1007.4 |
| 20260506084556 | 60 | 211 | 1.0 | 0.0 | 0.00 | 0.00 | 0.00 | 74 | 1007.5 |
| 20260506083052 | 60 | 205 | 3.0 | 0.0 | 0.00 | 0.00 | 0.00 | 73 | 1007.5 |
| 20260506081550 | 61 | 248 | 3.0 | 0.0 | 0.00 | 0.00 | 0.00 | 73 | 1007.5 |
| 20260506073042 | 62 | 202 | 4.0 | 0.0 | 0.00 | 0.00 | 0.00 | 70 | 1007.2 |
| 20260506071540 | 62 | 209 | 4.0 | 0.0 | 0.00 | 0.00 | 0.00 | 70 | 1007.1 |
| 20260506061532 | 63 | 189 | 4.0 | 0.0 | 0.00 | 0.00 | 0.00 | 66 | 1007.1 |
| 20260506044520 | 63 | 201 | 2.0 | 0.0 | 0.00 | 0.00 | 0.00 | 63 | 1007.4 |
| 20260506043015 | 63 | 252 | 3.0 | 0.0 | 0.00 | 0.00 | 0.00 | 63 | 1007.5 |
| 20260506041514 | 63 | 202 | 4.0 | 0.0 | 0.00 | 0.00 | 0.00 | 63 | 1007.4 |